Location: Joffre
(52.3362°N, 113.5373°W)
Time: 10:30:54
(UTC+00:00)

N. Korean satellite - Pass Details

Date: 09 December 2021
Orbit: 447 x 491 km, 97.3° (Epoch: 20 January)

Event Time Altitude Azimuth Distance (km) Brightness Sun altitude
Rises 11:49:28 0° 29° (NNE) 2,465 10.6 -32.6°
Reaches altitude 10° 11:52:20 10° 57° (ENE) 1,584 9.8 -32.2°
Maximum altitude 11:54:09 14° 89° (E) 1,364 9.6 -31.9°
Drops below altitude 10° 11:55:58 10° 122° (ESE) 1,577 9.8 -31.6°
Sets 11:58:48 0° 150° (SSE) 2,446 10.5 -31.2°
